Meteo Giornale » Osservazioni meteo Stati Uniti (USA) » Cold Bay
ore: 10:13 - Osservazioni Meteo Cold Bay
Lat. 55° 13' N Lon. 162° 43' W Alt. 30 metri s.l.m.
13 °C
Pioggia Foschia
Temp. 24 Ore
10 °C
17 °C
Ovest
55.5 Km/h
Dew point 12 °C
Umidità 93 %
Visibilità 2 Km
Il sole sorge alle ore 07:56
Il sole tramonta alle ore 21:46
| Data e Ora | Cielo e Fenomeni | T °C | DP °C | Um. % | Pres. hPa | Vis. km | Vento km/h | |
|---|---|---|---|---|---|---|---|---|
| Oggi h: 10:13 | Pioggia Foschia | 13 | 12 | 93 | 1014 | 2 | O 55.5 | |
| Oggi h: 09:53 | Pioggia Foschia | 13 | 12 | 93 | 1014 | 2 | O 51.8 | |
| Oggi h: 09:30 | Pioggia Foschia | 13 | 13 | 100 | 1014 | 2 | O 51.8 | |
| Oggi h: 09:18 | Foschia | 13 | 13 | 100 | 1013 | 5 | O 57.3 | |
| Oggi h: 09:11 | Foschia | 13 | 13 | 100 | 1013 | 3 | O 51.8 | |
| Oggi h: 08:53 | Pioggia Foschia | 14 | 13 | 93 | 1014 | 5 | O 57.3 | |
| Oggi h: 08:38 | Coperto | 14 | 13 | 93 | 1013 | 14 | O 55.5 | |
| Oggi h: 08:11 | Pioggia Foschia | 15 | 14 | 93 | 1013 | 2 | O 59.2 | |
| Oggi h: 08:00 | Pioggia Foschia | 15 | 14 | 93 | 1012 | 5 | O 53.7 | |
| Oggi h: 07:53 | Pioggia Foschia | 16 | 15 | 93 | 1012 | 3 | O 61.1 | |
| Oggi h: 07:04 | Pioggia Foschia | 17 | 16 | 93 | 1014 | 3 | O 48.1 | |
| Oggi h: 07:00 | Pioggia Foschia | 16 | 16 | 100 | 1014 | 5 | O 48.1 | |
| Oggi h: 06:53 | Pioggia Foschia | 16 | 16 | 100 | 1014 | 3 | O/SO 38.8 | |
| Oggi h: 06:48 | Pioggia Foschia | 16 | 16 | 100 | 1014 | 2 | O/SO 37 | |
| Oggi h: 06:41 | Pioggia Foschia | 16 | 15 | 93 | 1014 | 2 | O 31.5 | |
| Oggi h: 06:12 | Coperto | 16 | 14 | 87 | 1014 | 10 | O/SO 33.3 | |
| Oggi h: 06:04 | Coperto | 16 | 14 | 87 | 1014 | 10 | O/SO 33.3 | |
| Oggi h: 05:53 | Coperto | 16 | 14 | 87 | 1015 | 10 | O/SO 31.5 | |
| Oggi h: 05:51 | Coperto | 16 | 14 | 87 | 1015 | 10 | O/SO 33.3 | |
| Oggi h: 05:40 | Coperto | 15 | 14 | 93 | 1015 | 10 | O/SO 31.5 | |
| Oggi h: 04:53 | Coperto | 14 | 14 | 100 | 1017 | 10 | O/SO 31.5 | |
| Oggi h: 03:53 | Foschia | 14 | 13 | 93 | 1018 | 8 | O/SO 25.9 | |
| Oggi h: 03:31 | Foschia | 14 | 13 | 93 | 1018 | 5 | O 27.8 | |
| Oggi h: 03:15 | Foschia | 14 | 13 | 93 | 1019 | 3 | O 22.2 | |
| Oggi h: 03:03 | Pioggia Foschia | 14 | 13 | 93 | 1019 | 5 | O 24 | |
| Oggi h: 02:53 | Foschia | 13 | 13 | 100 | 1019 | 3 | O 24 | |
| Oggi h: 02:51 | Foschia | 13 | 13 | 100 | 1019 | 3 | O 24 | |
| Oggi h: 02:36 | Foschia | 13 | 13 | 100 | 1019 | 5 | O 27.8 | |
| Oggi h: 02:28 | Foschia | 13 | 13 | 100 | 1020 | 3 | O 24 | |
| Oggi h: 02:23 | Foschia | 13 | 13 | 100 | 1020 | 5 | O 24 | |
| Oggi h: 02:15 | Pioggia Foschia | 13 | 13 | 100 | 1020 | 2 | O 27.8 | |
| Oggi h: 01:53 | Foschia | 13 | 12 | 93 | 1020 | 5 | O 29.6 | |
| Oggi h: 00:53 | Pioggia Foschia | 12 | 12 | 100 | 1021 | 2 | O 35.2 | |
| Oggi h: 00:31 | Pioggia Foschia | 12 | 12 | 100 | 1021 | 5 | O 33.3 | |
| Oggi h: 00:27 | Pioggia Foschia | 12 | 12 | 100 | 1021 | 5 | O 33.3 | |
| Oggi h: 00:09 | Pioggia Foschia | 12 | 12 | 100 | 1021 | 3 | O 37 | |
| Ieri h: 23:53 | Pioggia Foschia | 12 | 12 | 100 | 1021 | 5 | O 37 | |
| Ieri h: 22:53 | Pioggia Foschia | 12 | 12 | 100 | 1021 | 3 | O 35.2 | |
| Ieri h: 21:53 | Pioggia Foschia | 12 | 12 | 100 | 1021 | 3 | O 37 | |
| Ieri h: 21:41 | Pioggia Foschia | 12 | 12 | 100 | 1021 | 3 | O 38.8 | |
| Ieri h: 20:53 | Pioggia Foschia | 13 | 12 | 93 | 1021 | 2 | O 38.8 | |
| Ieri h: 20:30 | Pioggia Foschia | 13 | 12 | 93 | 1021 | 3 | O 44.4 | |
| Ieri h: 19:53 | Pioggia Foschia | 13 | 13 | 100 | 1021 | 2 | O/SO 42.6 | |
| Ieri h: 19:45 | Pioggia Foschia | 13 | 13 | 100 | 1021 | 5 | O/SO 42.6 | |
| Ieri h: 19:33 | Pioggia Foschia | 13 | 13 | 100 | 1021 | 5 | O/SO 40.7 | |
| Ieri h: 19:22 | Pioggia Foschia | 13 | 13 | 100 | 1021 | 5 | O/SO 50 | |
| Ieri h: 18:53 | Foschia | 13 | 13 | 100 | 1021 | 8 | O 44.4 | |
| Ieri h: 18:04 | Foschia | 14 | 13 | 93 | 1021 | 10 | O 46.3 | |
| Ieri h: 17:53 | Foschia | 14 | 14 | 100 | 1021 | 8 | O 48.1 | |
| Ieri h: 17:29 | Pioggia Foschia | 16 | 14 | 87 | 1021 | 6 | O 44.4 | |
| Ieri h: 17:11 | Pioggia Foschia | 16 | 15 | 93 | 1021 | 2 | O 44.4 | |
| Ieri h: 16:53 | Pioggia Foschia | 16 | 16 | 100 | 1021 | 6 | O 40.7 | |
| Ieri h: 16:29 | Pioggia Foschia | 16 | 15 | 93 | 1021 | 5 | O/SO 31.5 | |
| Ieri h: 16:26 | Pioggia Foschia | 16 | 15 | 93 | 1021 | 5 | O/SO 38.8 | |
| Ieri h: 16:04 | Pioggia Foschia | 16 | 15 | 93 | 1021 | 2 | O/SO 38.8 | |
| Ieri h: 15:53 | Pioggia Foschia | 16 | 15 | 93 | 1021 | 2 | O/SO 40.7 | |
| Ieri h: 15:47 | Foschia | 16 | 15 | 93 | 1021 | 5 | O/SO 35.2 | |
| Ieri h: 15:32 | Foschia | 16 | 15 | 93 | 1021 | 3 | O/SO 38.8 | |
| Ieri h: 14:53 | Pioggia Foschia | 14 | 13 | 93 | 1023 | 5 | O/SO 16.7 | |
| Ieri h: 14:26 | Coperto | 11 | 9 | 87 | 1023 | 11 | SE 16.7 | |
| Ieri h: 13:53 | Coperto | 12 | 9 | 81 | 1023 | 10 | S/SE 22.2 | |
| Ieri h: 12:53 | Coperto | 11 | 9 | 87 | 1024 | 10 | SE 13 | |
| Ieri h: 12:51 | Coperto | 11 | 9 | 87 | 1024 | 10 | SE 14.8 | |
| Ieri h: 11:53 | Coperto | 11 | 9 | 87 | 1025 | 10 | E/SE 9.3 | |
| Ieri h: 11:20 | Coperto | 10 | 8 | 87 | 1025 | 10 | N 5.5 | |
| Ieri h: 11:19 | Coperto | 10 | 8 | 87 | 1025 | 10 | N 5.5 | |
| Ieri h: 10:53 | Coperto | 10 | 8 | 87 | 1025 | 10 | N 0 | |
| Ieri h: 10:50 | Coperto | 10 | 8 | 87 | 1025 | 10 | N 5.5 | |



